Wind_Speed
61 61 62 62 63 64 62 59 57 56 59 51 63 63 56 55 53 59 58 56 52 49 47 44 40 40 34 33 32 30 30 29 27 26 28 21 17 14 12 13 13 13 9 11 10
62 63 63 64 64 64 64 64 61 59 59 64 59 65 63 59 54 60 59 58 56 53 49 48 45 42 39 37 33 28 26 30 32 28 25 24 21 15 14 15 13 12 9 10 11
63 62 62 63 64 65 66 66 67 65 63 64 58 67 65 61 62 64 60 61 59 56 53 51 49 46 42 39 32 28 25 32 30 26 29 26 25 20 18 17 12 13 12 10 11
68 65 64 64 64 64 65 66 70 72 69 67 70 62 70 64 62 66 65 59 62 60 57 54 50 48 43 39 34 32 28 32 31 32 30 26 26 23 21 17 17 13 15 10 10
71 68 66 66 66 64 64 66 68 74 76 72 66 68 78 58 68 76 64 68 66 64 60 56 51 49 45 42 33 33 31 31 27 34 32 30 27 24 25 19 18 15 15 12 10
71 70 70 70 69 69 67 66 68 71 80 80 76 61 76 71 49 65 67 67 68 64 60 59 54 51 47 43 42 32 35 32 28 35 33 31 29 25 26 23 20 19 17 14 13
72 72 74 74 72 70 69 68 68 71 76 86 81 77 74 68 44 52 66 65 68 63 61 59 57 54 47 44 42 40 40 34 32 30 29 30 28 23 28 24 23 22 21 18 16
75 75 77 76 75 73 72 70 71 72 78 86 89 82 85 65 76 49 48 63 66 62 62 61 60 58 51 49 42 41 41 41 36 34 32 27 17 27 27 21 23 24 23 23 20
78 77 77 76 75 75 72 72 73 75 82 88 94 88 89 80 88 72 51 53 66 62 62 63 61 59 54 49 46 45 46 45 38 34 32 24 22 27 24 21 25 25 26 25 23
74 74 75 74 73 74 73 73 73 80 86 90 95 84 88 84 59 77 73 56 63 67 66 65 61 62 58 54 51 49 47 47 38 36 34 27 23 27 25 22 19 21 26 26 27
57 64 68 68 70 69 66 65 69 73 82 89 95 94 82 88 87 67 66 76 60 72 69 66 64 66 61 54 48 46 46 44 37 40 39 31 31 31 31 27 23 21 22 21 24
55 54 60 53 57 55 60 62 63 70 75 85 93 90 84 73 76 71 58 74 71 71 68 70 71 64 57 54 49 47 47 41 37 44 40 36 35 34 34 28 24 23 19 16 16
52 54 59 58 60 59 60 60 59 64 64 71 84 88 83 71 72 62 58 70 61 69 72 69 66 62 59 57 52 52 49 46 43 46 40 37 38 36 32 31 28 21 18 15 18
48 55 57 61 62 57 52 54 60 61 60 66 78 78 79 78 68 70 60 68 70 63 64 66 64 61 60 56 50 51 48 44 43 46 42 39 43 36 33 30 26 23 21 19 15
49 55 57 59 56 56 49 51 59 61 65 72 71 74 73 83 67 75 58 59 66 67 68 71 68 64 59 54 51 52 49 46 46 49 45 42 46 36 38 36 27 27 26 22 20
49 56 58 58 55 54 52 51 57 63 66 58 67 85 77 69 74 71 66 66 59 60 58 69 68 63 53 51 53 52 50 49 48 50 49 46 48 46 40 36 29 28 26 22 23
46 48 49 52 51 54 57 59 64 66 62 67 65 91 77 60 59 72 70 72 71 64 63 61 69 66 61 57 55 55 53 51 50 52 54 49 51 56 39 34 29 26 25 27 28
41 46 48 50 53 58 62 63 74 58 70 21 62 88 85 57 56 61 70 77 75 64 61 59 64 68 64 62 55 54 55 53 52 53 51 49 51 52 42 34 30 30 31 31 30
42 43 49 52 57 62 66 66 76 65 53 66 50 88 86 71 59 70 71 70 72 66 59 58 60 61 65 62 60 59 60 56 56 55 55 55 50 47 44 31 31 32 33 34 33
39 41 40 46 56 58 64 70 85 67 36 51 55 71 87 73 66 68 70 70 69 59 58 61 61 61 66 63 62 57 55 54 54 55 52 51 50 46 44 38 32 32 34 37 38
41 38 42 40 50 54 63 72 89 72 52 34 57 59 76 68 69 69 69 70 68 62 59 59 63 64 59 60 59 60 64 63 58 56 54 50 47 43 41 40 38 36 38 37 38
42 42 40 42 47 51 62 70 87 73 68 31 45 51 65 56 58 65 68 60 64 67 61 59 58 57 56 53 58 62 62 62 60 58 56 55 49 46 45 47 47 45 40 42 43
38 40 40 44 46 51 62 68 78 68 63 38 50 54 70 67 67 72 64 63 64 70 70 66 63 64 63 63 62 59 55 58 61 58 57 57 44 50 51 51 51 51 50 48 48
37 39 38 42 41 49 61 67 77 71 73 45 56 50 77 71 66 67 62 64 71 68 69 70 69 68 60 53 52 56 60 67 67 63 57 53 47 51 51 51 51 52 53 51 49
35 37 38 41 42 48 59 72 75 71 79 51 54 55 72 67 69 71 68 64 69 72 71 66 70 69 69 65 60 50 51 57 56 57 57 43 49 49 54 55 56 56 54 52 54
31 33 36 38 41 48 60 76 75 49 70 61 52 56 51 51 60 57 58 62 64 60 64 64 67 65 66 62 64 63 58 55 53 53 54 53 47 50 52 54 52 52 56 54 55
31 32 32 36 41 48 66 73 60 49 70 58 52 56 59 48 47 50 60 63 62 63 61 67 68 66 65 64 64 64 57 57 53 50 44 46 37 44 47 49 52 55 55 56 57
Wind_Direction
226 227 227 226 226 225 224 224 223 223 229 216 234 230 229 225 228 228 229 228 228 226 225 226 225 224 226 236 234 248 229 224 231 228 230 227 224 229 234 249 255 261 266 263 242
224 225 226 228 230 227 227 225 225 223 221 225 223 223 224 225 230 229 227 228 228 226 226 228 228 227 228 231 235 229 231 228 231 228 230 229 227 225 228 242 250 261 256 263 259
226 225 227 228 228 231 229 227 225 226 223 227 229 224 225 228 232 228 228 228 228 226 226 228 228 230 229 229 230 228 244 229 235 229 227 226 228 229 233 237 249 260 262 255 262
226 227 229 230 229 229 230 230 227 224 227 223 225 223 229 230 221 226 226 231 228 227 227 228 227 232 232 232 228 236 233 234 232 231 223 231 227 226 234 238 239 244 260 257 260
226 229 231 232 232 231 231 230 229 227 226 226 224 227 227 227 225 231 227 227 228 228 228 227 227 230 232 231 232 233 230 236 233 235 227 230 225 226 236 232 241 240 246 255 255
230 231 231 233 233 234 233 231 229 228 227 227 220 214 229 231 223 221 226 223 223 225 227 227 227 227 229 228 224 226 234 233 235 237 230 236 228 230 240 239 242 244 248 247 248
232 233 235 234 235 235 234 233 229 230 226 225 226 223 235 213 225 216 219 221 218 220 222 222 224 226 226 230 229 233 237 232 233 231 234 242 241 243 243 240 243 244 244 247 244
232 233 234 234 235 235 234 233 231 228 227 226 223 221 225 223 229 215 217 218 214 215 219 219 221 224 223 225 227 231 234 233 231 234 237 246 233 230 235 243 247 250 249 249 244
232 233 233 234 234 234 233 233 231 229 226 225 222 223 221 223 226 227 223 211 209 211 214 215 218 222 221 222 226 228 231 236 232 236 237 240 235 236 242 241 248 249 248 250 250
234 233 232 232 233 232 230 230 229 228 224 225 224 220 221 220 228 233 231 219 215 212 214 216 216 220 221 221 224 227 233 236 236 235 237 232 232 244 243 238 248 258 256 251 254
222 225 227 227 227 226 223 220 221 223 223 223 224 222 220 219 227 224 236 235 234 218 216 219 219 222 223 223 226 228 230 239 236 240 240 235 234 242 245 244 249 261 266 258 258
213 215 214 210 213 213 213 215 222 227 225 224 223 223 216 218 229 229 232 232 221 217 215 214 219 219 218 221 223 227 231 231 232 239 238 239 238 242 248 253 258 264 271 268 259
218 217 215 211 210 213 213 213 218 221 221 223 221 220 213 216 223 227 234 221 226 216 214 218 220 218 217 220 219 226 229 230 234 239 239 238 241 242 247 248 255 261 259 263 262
211 215 212 210 211 214 213 216 214 218 221 221 216 216 207 206 222 227 232 232 225 214 215 218 219 218 219 221 221 228 231 232 236 239 240 240 243 242 244 249 252 258 254 259 269
208 211 212 210 211 209 209 211 212 213 219 217 212 204 205 208 217 224 219 229 231 232 221 218 217 216 219 221 221 227 228 231 231 237 236 235 245 229 242 244 247 250 248 259 266
208 212 209 209 208 204 203 207 206 210 220 220 212 200 195 200 209 215 214 220 224 221 219 220 220 218 221 225 226 226 229 230 230 235 236 235 241 236 236 248 244 243 247 261 262
207 208 210 209 208 204 200 202 203 200 213 216 212 205 196 188 199 209 214 214 212 212 215 217 216 221 224 223 222 225 228 229 231 232 237 235 239 250 237 243 248 253 257 253 257
204 207 208 206 206 201 198 200 202 200 207 182 214 211 205 201 212 208 216 216 216 223 225 219 218 216 219 223 229 229 230 232 234 237 239 241 243 248 251 250 247 253 256 257 260
204 205 203 206 203 203 203 200 200 203 204 217 208 211 212 214 211 211 211 217 220 218 218 220 219 220 219 220 223 222 226 229 232 236 238 243 245 251 255 246 249 250 253 257 258
204 209 205 201 205 206 206 201 198 199 193 216 215 215 204 207 216 216 208 211 213 216 218 221 220 218 219 219 219 223 228 232 235 237 242 244 246 248 251 255 244 249 250 253 255
207 208 211 207 202 207 210 202 197 199 201 194 213 214 211 207 214 218 217 209 215 216 209 215 217 219 218 221 226 226 229 231 230 232 237 239 242 242 249 254 251 241 244 245 248
210 211 212 217 213 210 208 201 198 204 207 204 209 217 219 218 219 215 211 214 216 211 212 213 213 220 223 222 223 227 227 232 236 237 237 242 242 243 244 248 250 249 244 247 251
213 217 216 221 222 212 209 196 204 201 202 207 204 212 210 210 218 210 213 211 214 213 219 218 215 217 221 222 222 225 232 233 234 236 236 240 238 238 242 246 251 255 257 250 247
216 219 216 218 221 218 212 209 195 199 198 203 195 207 207 213 209 211 209 211 215 219 220 219 220 222 225 229 227 224 227 228 234 236 238 237 240 247 246 249 253 254 257 262 265
215 219 222 219 216 219 218 210 194 203 202 208 200 202 211 215 213 224 217 212 214 218 220 221 226 227 226 227 229 235 238 240 243 239 243 234 239 247 252 254 255 258 264 268 266
218 221 222 220 214 221 219 210 203 204 203 211 209 210 206 211 217 220 216 212 214 219 221 226 227 227 232 233 234 236 237 239 238 240 244 240 237 246 254 260 265 267 263 263 266
217 219 220 219 220 220 217 211 204 202 203 196 200 210 216 212 211 217 224 219 213 222 225 224 227 228 231 235 236 235 234 238 240 245 242 246 246 256 257 258 256 260 262 263 266
Height
5640 5648 5657 5665 5674 5683 5692 5702 5710 5719 5728 5741 5748 5751 5755 5761 5768 5777 5785 5793 5801 5807 5813 5817 5820 5825 5829 5833 5837 5839 5843 5846 5848 5849 5851 5855 5857 5859 5861 5863 5864 5866 5866 5866 5867
5629 5637 5645 5654 5662 5672 5681 5691 5701 5710 5718 5726 5726 5739 5747 5754 5758 5767 5778 5786 5793 5800 5806 5811 5815 5820 5824 5830 5834 5837 5839 5842 5843 5846 5850 5851 5854 5857 5858 5860 5862 5865 5865 5864 5866
5618 5627 5635 5645 5653 5661 5670 5680 5689 5699 5707 5715 5721 5731 5741 5743 5748 5759 5769 5777 5785 5792 5798 5805 5809 5813 5819 5825 5830 5834 5838 5837 5840 5844 5847 5848 5851 5853 5855 5857 5862 5863 5863 5863 5864
5605 5615 5624 5633 5643 5651 5659 5668 5678 5687 5695 5704 5713 5722 5729 5734 5740 5747 5760 5769 5776 5784 5792 5798 5804 5809 5815 5820 5825 5830 5832 5834 5836 5839 5843 5845 5848 5850 5853 5855 5858 5861 5861 5862 5862
5591 5601 5611 5620 5630 5639 5648 5656 5666 5675 5683 5694 5704 5710 5716 5722 5732 5740 5751 5759 5765 5775 5784 5791 5798 5803 5808 5815 5820 5825 5829 5829 5834 5836 5839 5841 5844 5847 5849 5852 5854 5857 5859 5859 5859
5575 5586 5597 5607 5617 5626 5636 5645 5654 5662 5671 5680 5692 5696 5703 5716 5729 5730 5742 5749 5759 5767 5777 5783 5791 5796 5802 5807 5813 5820 5823 5825 5830 5831 5836 5838 5842 5844 5846 5849 5851 5853 5855 5857 5857
5557 5570 5581 5593 5603 5612 5622 5631 5641 5650 5659 5667 5676 5689 5690 5712 5718 5723 5734 5739 5748 5756 5767 5774 5782 5789 5798 5803 5810 5815 5818 5822 5825 5828 5831 5834 5840 5843 5840 5845 5847 5849 5851 5853 5855
5541 5553 5566 5577 5588 5599 5609 5617 5626 5636 5644 5651 5662 5672 5677 5697 5707 5715 5726 5729 5738 5747 5758 5764 5772 5781 5789 5796 5803 5808 5811 5814 5822 5824 5828 5831 5836 5835 5836 5841 5843 5846 5848 5850 5851
5525 5536 5548 5560 5571 5584 5595 5603 5611 5620 5625 5631 5642 5655 5668 5682 5689 5705 5719 5724 5729 5737 5747 5754 5764 5773 5781 5788 5796 5800 5803 5807 5816 5819 5822 5828 5830 5832 5834 5836 5839 5841 5843 5846 5848
5508 5520 5531 5544 5555 5567 5578 5585 5593 5597 5604 5611 5620 5640 5649 5671 5688 5696 5706 5713 5723 5727 5736 5745 5755 5764 5774 5779 5787 5793 5798 5802 5811 5815 5816 5823 5828 5827 5829 5831 5834 5837 5839 5842 5845
5492 5504 5517 5529 5539 5550 5559 5564 5570 5578 5585 5602 5619 5632 5657 5670 5672 5681 5693 5701 5710 5717 5729 5739 5746 5757 5767 5775 5781 5788 5791 5796 5806 5806 5812 5819 5821 5822 5824 5828 5831 5833 5836 5839 5841
5481 5492 5503 5516 5526 5536 5544 5551 5566 5580 5582 5595 5606 5624 5642 5656 5668 5674 5683 5688 5699 5712 5719 5725 5736 5751 5759 5766 5774 5780 5785 5792 5798 5798 5807 5813 5816 5818 5821 5826 5827 5829 5834 5835 5836
5472 5482 5493 5505 5514 5523 5534 5548 5559 5566 5575 5584 5596 5612 5635 5648 5658 5662 5671 5684 5696 5701 5709 5723 5738 5742 5747 5756 5765 5769 5777 5784 5791 5791 5800 5805 5809 5814 5818 5819 5821 5826 5829 5831 5831
5464 5473 5484 5493 5505 5516 5529 5539 5549 5558 5564 5571 5580 5596 5613 5632 5642 5655 5665 5675 5681 5695 5707 5715 5720 5731 5740 5748 5759 5763 5771 5778 5783 5787 5793 5798 5800 5808 5811 5815 5820 5823 5825 5825 5826
5456 5465 5475 5489 5500 5509 5523 5530 5542 5550 5548 5559 5572 5599 5619 5620 5629 5642 5659 5663 5670 5687 5696 5708 5711 5722 5731 5743 5751 5755 5765 5770 5776 5778 5784 5790 5790 5805 5804 5808 5815 5817 5818 5819 5820
5448 5457 5468 5476 5489 5502 5512 5523 5534 5537 5537 5553 5563 5578 5591 5607 5623 5641 5648 5654 5668 5675 5684 5691 5704 5712 5727 5734 5740 5748 5757 5762 5768 5770 5776 5783 5784 5793 5798 5802 5806 5808 5813 5815 5815
5441 5451 5462 5471 5483 5493 5504 5512 5518 5522 5537 5546 5555 5569 5590 5599 5610 5621 5630 5638 5645 5655 5664 5682 5691 5705 5716 5722 5730 5738 5746 5753 5757 5761 5766 5774 5776 5778 5796 5798 5801 5805 5807 5809 5810
5434 5443 5453 5464 5473 5482 5492 5501 5503 5514 5529 5535 5555 5564 5575 5588 5597 5610 5621 5629 5637 5657 5666 5672 5683 5694 5705 5712 5728 5733 5737 5745 5749 5755 5762 5766 5769 5774 5785 5793 5797 5798 5799 5801 5803
5429 5437 5446 5455 5464 5472 5479 5482 5493 5507 5524 5535 5546 5554 5562 5575 5587 5598 5609 5619 5638 5645 5660 5670 5678 5688 5694 5704 5714 5718 5724 5735 5740 5746 5751 5756 5765 5769 5773 5784 5787 5790 5791 5793 5795
5425 5433 5440 5448 5455 5460 5466 5473 5486 5504 5517 5524 5534 5543 5555 5569 5576 5587 5600 5616 5630 5643 5654 5661 5670 5676 5684 5695 5701 5714 5723 5727 5733 5739 5745 5751 5756 5762 5767 5770 5779 5781 5783 5785 5786
5420 5427 5433 5440 5445 5451 5455 5469 5484 5497 5503 5514 5528 5537 5549 5562 5573 5582 5596 5614 5626 5638 5644 5652 5662 5669 5676 5683 5698 5705 5706 5713 5722 5728 5734 5741 5750 5756 5759 5762 5766 5771 5772 5774 5776
5415 5421 5427 5432 5438 5442 5452 5468 5482 5489 5498 5507 5521 5534 5546 5559 5568 5580 5592 5611 5622 5631 5636 5642 5648 5659 5671 5678 5686 5692 5702 5706 5711 5721 5727 5734 5747 5750 5751 5750 5752 5755 5761 5763 5765
5410 5416 5422 5426 5431 5440 5452 5462 5473 5482 5495 5503 5514 5525 5543 5553 5562 5577 5590 5600 5609 5615 5620 5633 5640 5648 5654 5663 5675 5685 5694 5701 5703 5709 5718 5724 5739 5737 5739 5741 5743 5745 5747 5751 5753
5405 5410 5415 5420 5428 5437 5445 5453 5465 5480 5490 5496 5511 5522 5534 5542 5557 5568 5579 5591 5603 5609 5618 5626 5633 5641 5649 5663 5668 5673 5679 5686 5689 5701 5712 5719 5729 5726 5729 5732 5734 5733 5735 5738 5741
5401 5406 5410 5417 5424 5432 5438 5446 5460 5470 5480 5490 5500 5508 5525 5537 5548 5558 5572 5585 5593 5599 5613 5624 5630 5635 5643 5650 5660 5668 5675 5680 5685 5700 5695 5717 5716 5720 5717 5719 5721 5724 5725 5728 5730
5397 5403 5407 5414 5420 5424 5431 5441 5454 5464 5472 5483 5493 5505 5517 5527 5542 5556 5572 5580 5588 5597 5605 5615 5622 5631 5636 5643 5648 5655 5662 5669 5679 5689 5691 5701 5709 5711 5710 5711 5713 5711 5715 5719 5720
5392 5397 5401 5407 5413 5419 5426 5437 5453 5461 5470 5482 5497 5505 5517 5537 5548 5557 5568 5574 5584 5591 5597 5603 5612 5620 5626 5632 5637 5640 5654 5662 5673 5677 5688 5688 5704 5699 5699 5700 5701 5699 5704 5707 5708